Time,TemperatureF,DewpointF,PressureIn,WindDirection,WindDirectionDegrees,WindSpeedMPH,WindSpeedGustMPH,Humidity,HourlyPrecipIn,Conditions,Clouds,dailyrainin,SoftwareType,DateUTC
2013-08-10 00:13:00,69.6,62.8,29.99,ENE,67,0.0,-999.0,79,-99.99,,,0.00,Acu-Link.com,2013-08-10 04:13:00,
2013-08-10 00:28:00,69.4,63.0,29.99,NE,45,0.0,-999.0,80,-99.99,,,0.00,Acu-Link.com,2013-08-10 04:28:00,
2013-08-10 00:43:00,69.1,63.4,29.99,NNW,337,0.0,-999.0,82,-99.99,,,0.00,Acu-Link.com,2013-08-10 04:43:00,
2013-08-10 00:58:00,68.7,63.3,29.99,NE,45,0.0,-999.0,83,-99.99,,,0.00,Acu-Link.com,2013-08-10 04:58:00,
2013-08-10 01:13:00,68.4,63.4,29.99,NE,45,0.0,-999.0,84,-99.99,,,0.00,Acu-Link.com,2013-08-10 05:13:00,
2013-08-10 01:29:00,68.0,63.3,29.99,NE,45,0.0,-999.0,85,-99.99,,,0.00,Acu-Link.com,2013-08-10 05:29:00,
2013-08-10 01:44:00,68.0,64.0,29.99,WNW,292,0.0,-999.0,87,-99.99,,,0.00,Acu-Link.com,2013-08-10 05:44:00,
2013-08-10 01:59:00,67.8,63.5,29.99,North,0,0.0,-999.0,86,-99.99,,,0.00,Acu-Link.com,2013-08-10 05:59:00,
2013-08-10 02:14:00,68.4,64.4,29.99,WSW,247,0.0,-999.0,87,-99.99,,,0.00,Acu-Link.com,2013-08-10 06:14:00,
2013-08-10 02:29:00,68.2,64.2,29.99,South,180,0.0,-999.0,87,-99.99,,,0.00,Acu-Link.com,2013-08-10 06:29:00,
2013-08-10 02:44:00,68.0,64.3,30.00,West,270,0.0,-999.0,88,-99.99,,,0.00,Acu-Link.com,2013-08-10 06:44:00,
2013-08-10 02:59:00,67.8,64.1,29.99,North,0,0.0,-999.0,88,-99.99,,,0.00,Acu-Link.com,2013-08-10 06:59:00,
2013-08-10 03:14:00,67.8,64.1,29.99,NNE,22,0.0,-999.0,88,-99.99,,,0.00,Acu-Link.com,2013-08-10 07:14:00,
2013-08-10 03:29:00,67.8,64.1,29.99,ENE,67,0.0,-999.0,88,-99.99,,,0.00,Acu-Link.com,2013-08-10 07:29:00,
2013-08-10 03:45:00,67.8,63.8,29.99,ENE,67,0.0,-999.0,87,-99.99,,,0.00,Acu-Link.com,2013-08-10 07:45:00,
2013-08-10 04:00:00,67.8,63.5,29.99,North,0,0.0,-999.0,86,-99.99,,,0.00,Acu-Link.com,2013-08-10 08:00:00,
2013-08-10 04:15:00,67.8,63.5,29.99,East,90,0.0,-999.0,86,-99.99,,,0.00,Acu-Link.com,2013-08-10 08:15:00,
2013-08-10 04:45:00,68.2,63.5,30.00,NE,45,0.0,-999.0,85,-99.99,,,0.00,Acu-Link.com,2013-08-10 08:45:00,
2013-08-10 05:00:00,68.5,63.5,30.00,NE,45,0.0,-999.0,84,-99.99,,,0.00,Acu-Link.com,2013-08-10 09:00:00,
2013-08-10 05:15:00,68.5,63.1,30.00,ENE,67,0.0,-999.0,83,-99.99,,,0.00,Acu-Link.com,2013-08-10 09:15:00,
2013-08-10 05:30:00,68.4,63.4,30.01,WNW,292,0.0,-999.0,84,-99.99,,,0.00,Acu-Link.com,2013-08-10 09:30:00,
2013-08-10 05:45:00,68.4,63.7,30.02,ESE,112,0.0,-999.0,85,-99.99,,,0.00,Acu-Link.com,2013-08-10 09:45:00,
2013-08-10 06:01:00,67.8,63.8,30.02,NE,45,0.0,-999.0,87,-99.99,,,0.00,Acu-Link.com,2013-08-10 10:01:00,
2013-08-10 06:16:00,67.3,63.6,30.02,North,0,0.0,-999.0,88,-99.99,,,0.00,Acu-Link.com,2013-08-10 10:16:00,
2013-08-10 06:31:00,67.5,63.5,30.02,ENE,67,1.1,-999.0,87,-99.99,,,0.00,Acu-Link.com,2013-08-10 10:31:00,
2013-08-10 06:46:00,67.5,63.5,30.01,ENE,67,0.0,-999.0,87,-99.99,,,0.00,Acu-Link.com,2013-08-10 10:46:00,
2013-08-10 07:01:00,67.3,63.3,30.01,ENE,67,0.0,-999.0,87,-99.99,,,0.00,Acu-Link.com,2013-08-10 11:01:00,
2013-08-10 07:16:00,67.3,63.3,30.01,SSE,157,0.0,-999.0,87,-99.99,,,0.00,Acu-Link.com,2013-08-10 11:16:00,
2013-08-10 07:31:00,67.6,63.6,30.02,WSW,247,0.0,-999.0,87,-99.99,,,0.00,Acu-Link.com,2013-08-10 11:31:00,
2013-08-10 07:47:00,67.8,63.8,30.01,SSW,202,0.0,-999.0,87,-99.99,,,0.00,Acu-Link.com,2013-08-10 11:47:00,
2013-08-10 08:02:00,68.7,64.3,30.01,SSW,202,0.0,-999.0,86,-99.99,,,0.00,Acu-Link.com,2013-08-10 12:02:00,
2013-08-10 08:17:00,69.6,64.9,30.01,SSW,202,0.0,-999.0,85,-99.99,,,0.00,Acu-Link.com,2013-08-10 12:17:00,
2013-08-10 08:32:00,70.7,65.6,30.02,WSW,247,0.0,-999.0,84,-99.99,,,0.00,Acu-Link.com,2013-08-10 12:32:00,
2013-08-10 08:47:00,72.0,66.2,30.03,East,90,0.0,-999.0,82,-99.99,,,0.00,Acu-Link.com,2013-08-10 12:47:00,
2013-08-10 09:02:00,73.4,66.5,30.02,NNW,337,0.0,-999.0,79,-99.99,,,0.00,Acu-Link.com,2013-08-10 13:02:00,
2013-08-10 09:17:00,74.3,66.6,30.03,North,0,0.0,-999.0,77,-99.99,,,0.00,Acu-Link.com,2013-08-10 13:17:00,
2013-08-10 09:32:00,76.1,66.8,30.03,NE,45,0.0,-999.0,73,-99.99,,,0.00,Acu-Link.com,2013-08-10 13:32:00,
2013-08-10 09:47:00,76.6,67.7,30.03,SSE,157,0.0,-999.0,74,-99.99,,,0.00,Acu-Link.com,2013-08-10 13:47:00,
2013-08-10 10:03:00,77.9,67.3,30.03,NNE,22,0.0,-999.0,70,-99.99,,,0.00,Acu-Link.com,2013-08-10 14:03:00,
2013-08-10 10:18:00,79.3,66.9,30.04,East,90,1.1,-999.0,66,-99.99,,,0.00,Acu-Link.com,2013-08-10 14:18:00,
2013-08-10 10:33:00,81.3,67.9,30.04,South,180,2.2,-999.0,64,-99.99,,,0.00,Acu-Link.com,2013-08-10 14:33:00,
2013-08-10 10:48:00,84.0,68.1,30.05,NW,315,2.2,-999.0,59,-99.99,,,0.00,Acu-Link.com,2013-08-10 14:48:00,
2013-08-10 11:03:00,83.5,68.1,30.05,WSW,247,1.7,-999.0,60,-99.99,,,0.00,Acu-Link.com,2013-08-10 15:03:00,
2013-08-10 11:18:00,85.1,67.1,30.05,SSE,157,4.7,-999.0,55,-99.99,,,0.00,Acu-Link.com,2013-08-10 15:18:00,
2013-08-10 11:33:00,84.9,67.4,30.05,SSE,157,2.7,-999.0,56,-99.99,,,0.00,Acu-Link.com,2013-08-10 15:33:00,
2013-08-10 11:48:00,84.4,67.5,30.05,NNE,22,2.2,-999.0,57,-99.99,,,0.00,Acu-Link.com,2013-08-10 15:48:00,
2013-08-10 12:03:00,85.3,65.6,30.04,SW,225,1.1,-999.0,52,-99.99,,,0.00,Acu-Link.com,2013-08-10 16:03:00,
2013-08-10 12:19:00,88.3,67.8,30.04,SW,225,2.2,-999.0,51,-99.99,,,0.00,Acu-Link.com,2013-08-10 16:19:00,
2013-08-10 12:34:00,89.1,66.2,30.05,WSW,247,0.0,-999.0,47,-99.99,,,0.00,Acu-Link.com,2013-08-10 16:34:00,
2013-08-10 12:49:00,88.5,65.0,30.05,West,270,3.7,-999.0,46,-99.99,,,0.00,Acu-Link.com,2013-08-10 16:49:00,
2013-08-10 13:04:00,88.0,65.8,30.04,SSE,157,4.2,-999.0,48,-99.99,,,0.00,Acu-Link.com,2013-08-10 17:04:00,
2013-08-10 13:19:00,88.5,66.9,30.04,East,90,1.7,-999.0,49,-99.99,,,0.00,Acu-Link.com,2013-08-10 17:19:00,
2013-08-10 13:34:00,90.9,66.6,30.03,West,270,1.7,-999.0,45,-99.99,,,0.00,Acu-Link.com,2013-08-10 17:34:00,
2013-08-10 13:49:00,91.0,67.3,30.03,SE,135,3.7,-999.0,46,-99.99,,,0.00,Acu-Link.com,2013-08-10 17:49:00,
2013-08-10 14:04:00,89.1,66.2,30.03,SSE,157,5.3,-999.0,47,-99.99,,,0.00,Acu-Link.com,2013-08-10 18:04:00,
2013-08-10 14:19:00,90.3,67.3,30.03,WNW,292,4.7,-999.0,47,-99.99,,,0.00,Acu-Link.com,2013-08-10 18:19:00,
2013-08-10 14:35:00,89.8,66.8,30.03,NW,315,1.7,-999.0,47,-99.99,,,0.00,Acu-Link.com,2013-08-10 18:35:00,
2013-08-10 14:50:00,90.9,67.2,30.02,ESE,112,2.2,-999.0,46,-99.99,,,0.00,Acu-Link.com,2013-08-10 18:50:00,
2013-08-10 15:05:00,90.0,68.2,30.02,SSE,157,3.2,-999.0,49,-99.99,,,0.00,Acu-Link.com,2013-08-10 19:05:00,
2013-08-10 15:20:00,92.7,67.5,30.01,South,180,4.2,-999.0,44,-99.99,,,0.00,Acu-Link.com,2013-08-10 19:20:00,
2013-08-10 15:35:00,90.0,68.2,30.01,North,0,3.2,-999.0,49,-99.99,,,0.00,Acu-Link.com,2013-08-10 19:35:00,
2013-08-10 15:50:00,92.8,66.3,30.01,SW,225,4.7,-999.0,42,-99.99,,,0.00,Acu-Link.com,2013-08-10 19:50:00,
2013-08-10 16:05:00,93.0,68.5,30.00,WSW,247,2.7,-999.0,45,-99.99,,,0.00,Acu-Link.com,2013-08-10 20:05:00,
2013-08-10 16:20:00,91.9,68.1,30.00,SSE,157,3.2,-999.0,46,-99.99,,,0.00,Acu-Link.com,2013-08-10 20:20:00,
2013-08-10 16:35:00,91.2,68.7,29.98,SSW,202,2.7,-999.0,48,-99.99,,,0.00,Acu-Link.com,2013-08-10 20:35:00,
2013-08-10 16:51:00,91.2,69.3,29.98,WSW,247,3.7,-999.0,49,-99.99,,,0.00,Acu-Link.com,2013-08-10 20:51:00,
2013-08-10 17:06:00,91.0,67.9,29.97,NW,315,2.2,-999.0,47,-99.99,,,0.00,Acu-Link.com,2013-08-10 21:06:00,
2013-08-10 17:21:00,86.5,67.3,29.96,West,270,2.2,-999.0,53,-99.99,,,0.00,Acu-Link.com,2013-08-10 21:21:00,
2013-08-10 17:36:00,86.4,68.3,29.97,West,270,2.2,-999.0,55,-99.99,,,0.00,Acu-Link.com,2013-08-10 21:36:00,
2013-08-10 17:51:00,84.6,68.2,29.96,West,270,2.2,-999.0,58,-99.99,,,0.00,Acu-Link.com,2013-08-10 21:51:00,
2013-08-10 18:06:00,84.7,68.3,29.97,NNW,337,2.7,-999.0,58,-99.99,,,0.00,Acu-Link.com,2013-08-10 22:06:00,
2013-08-10 18:21:00,84.4,69.0,29.96,NNW,337,2.2,-999.0,60,-99.99,,,0.00,Acu-Link.com,2013-08-10 22:21:00,
2013-08-10 18:36:00,87.1,70.0,29.96,WNW,292,1.1,-999.0,57,-99.99,,,0.00,Acu-Link.com,2013-08-10 22:36:00,
2013-08-10 18:51:00,85.8,69.8,29.96,East,90,1.7,-999.0,59,-99.99,,,0.00,Acu-Link.com,2013-08-10 22:51:00,
2013-08-10 19:07:00,83.3,69.4,29.97,East,90,1.7,-999.0,63,-99.99,,,0.00,Acu-Link.com,2013-08-10 23:07:00,
2013-08-10 19:22:00,83.1,69.2,29.96,NNE,22,2.2,-999.0,63,-99.99,,,0.00,Acu-Link.com,2013-08-10 23:22:00,
2013-08-10 19:37:00,82.6,69.2,29.96,SSE,157,2.7,-999.0,64,-99.99,,,0.00,Acu-Link.com,2013-08-10 23:37:00,
2013-08-10 19:52:00,81.5,69.0,29.97,WNW,292,2.2,-999.0,66,-99.99,,,0.00,Acu-Link.com,2013-08-10 23:52:00,
2013-08-10 20:07:00,80.1,69.0,29.97,South,180,1.1,-999.0,69,-99.99,,,0.00,Acu-Link.com,2013-08-11 00:07:00,
2013-08-10 20:22:00,79.2,67.7,29.97,NE,45,1.1,-999.0,68,-99.99,,,0.00,Acu-Link.com,2013-08-11 00:22:00,
2013-08-10 20:37:00,78.3,67.7,29.97,East,90,0.0,-999.0,70,-99.99,,,0.00,Acu-Link.com,2013-08-11 00:37:00,
2013-08-10 20:52:00,77.0,67.3,29.98,NE,45,1.7,-999.0,72,-99.99,,,0.00,Acu-Link.com,2013-08-11 00:52:00,
2013-08-10 21:07:00,76.1,67.2,29.97,NNE,22,1.1,-999.0,74,-99.99,,,0.00,Acu-Link.com,2013-08-11 01:07:00,
2013-08-10 21:22:00,75.6,67.1,29.98,East,90,1.7,-999.0,75,-99.99,,,0.00,Acu-Link.com,2013-08-11 01:22:00,
2013-08-10 21:38:00,74.8,66.3,29.98,SW,225,0.0,-999.0,75,-99.99,,,0.00,Acu-Link.com,2013-08-11 01:38:00,
2013-08-10 21:53:00,73.8,65.7,29.99,WSW,247,1.1,-999.0,76,-99.99,,,0.00,Acu-Link.com,2013-08-11 01:53:00,
2013-08-10 22:08:00,73.2,65.5,30.00,West,270,0.0,-999.0,77,-99.99,,,0.00,Acu-Link.com,2013-08-11 02:08:00,
2013-08-10 22:23:00,72.5,65.2,30.00,SSE,157,0.0,-999.0,78,-99.99,,,0.00,Acu-Link.com,2013-08-11 02:23:00,
2013-08-10 22:38:00,72.0,65.5,30.01,WSW,247,0.0,-999.0,80,-99.99,,,0.00,Acu-Link.com,2013-08-11 02:38:00,
2013-08-10 22:53:00,72.1,65.6,30.00,East,90,0.0,-999.0,80,-99.99,,,0.00,Acu-Link.com,2013-08-11 02:53:00,
2013-08-10 23:08:00,72.1,65.2,30.01,ESE,112,0.0,-999.0,79,-99.99,,,0.00,Acu-Link.com,2013-08-11 03:08:00,
2013-08-10 23:23:00,71.4,64.9,30.00,NNE,22,0.0,-999.0,80,-99.99,,,0.00,Acu-Link.com,2013-08-11 03:23:00,
2013-08-10 23:38:00,71.1,65.0,30.00,NE,45,0.0,-999.0,81,-99.99,,,0.00,Acu-Link.com,2013-08-11 03:38:00,
2013-08-10 23:54:00,70.3,64.5,30.00,South,180,0.0,-999.0,82,-99.99,,,0.00,Acu-Link.com,2013-08-11 03:54:00,